Home   Weather   Douglas   Past weeks

Flag for Isle of Man Past Weather in Douglas, Isle of Man — Yesterday and Last 2 Weeks

Now
45 °F

Passing clouds.


Feels Like: 37 °F
Forecast: 40 / 48 °F
Wind: 20 mph from North

Location: Isle Of Man / Ronaldsway Airport

Current Time: Apr 24, 2017 at 12:55:06 pm

Latest Report: Apr 24, 2017 at 12:20 pm


Visibility: N/A

Pressure: 30.04 "Hg

Humidity: 76%

Dew Point: 37 °F

Location of DouglasLocation

Past Weather in Douglas — Graph

°F

Douglas Temperature Yesterday

Maximum temperature yesterday: 52 °F (at 12:50 pm)
Minimum temperature yesterday: 39 °F (at 6:20 am)
Average temperature yesterday: 48 °F

High & Low Weather Summary for the Past Weeks

 TemperatureHumidityPressure
High57 °F (Apr 21, 3:20 pm)100% (Apr 14, 4:50 am)30.57 "Hg (Apr 14, 4:50 am)
Low39 °F (Apr 18, 4:50 am)40% (Apr 18, 7:20 pm)29.89 "Hg (Apr 14, 3:50 pm)
Average49 °F78%30.25 "Hg
* Reported Apr 9 11:20 am — Apr 24 11:20 am, Douglas, Weather by CustomWeather, © 2017

Note: Actual official high and low records may vary slightly from our data, if they occured in-between our weather recording intervals... More about our weather records

Advertising

Douglas Weather History for the Previous 24 Hours

Scroll right to see more
 ConditionsComfort  
Time TempWeatherWind HumidityBarometerVisibility
11:20 am
Mon, Apr 24
50 °FPassing clouds.17 mph54%30.01 "HgN/A
10:50 am50 °FPassing clouds.16 mph58%30.01 "HgN/A
10:20 am48 °FPassing clouds.12 mph71%30.01 "HgN/A
9:50 am48 °FBroken clouds.15 mph71%30.01 "HgN/A
9:20 am48 °FPassing clouds.12 mph76%30.01 "HgN/A
8:50 am46 °FPartly sunny.13 mph87%30.01 "HgN/A
8:20 am46 °FLight rain. Partly sunny.14 mph87%30.01 "HgN/A
7:50 am48 °FLight rain. Mostly cloudy.17 mph82%30.01 "HgN/A
7:20 am48 °FScattered clouds.14 mph82%30.01 "HgN/A
6:50 am48 °FScattered clouds.12 mph82%30.01 "HgN/A
6:20 am48 °FPassing clouds.12 mph82%30.01 "HgN/A
5:50 am48 °FPassing clouds.13 mph82%30.01 "HgN/A
5:20 am48 °FPassing clouds.13 mph82%30.01 "HgN/A
4:50 am48 °FPassing clouds.12 mph82%30.04 "HgN/A
3:50 am50 °FLow clouds.12 mph76%30.04 "HgN/A
2:50 am50 °FPassing clouds.12 mph82%30.07 "HgN/A
1:50 am50 °FPassing clouds.9 mph82%30.09 "HgN/A
12:50 am50 °FPassing clouds.12 mph82%30.09 "HgN/A
11:50 pm
Sun, Apr 23
50 °FPassing clouds.5 mph82%30.12 "HgN/A
10:50 pm50 °FPassing clouds.10 mph88%30.12 "HgN/A
9:50 pm50 °FPassing clouds.12 mph94%30.15 "HgN/A
8:50 pm50 °FPartly cloudy.12 mph88%30.15 "HgN/A
8:20 pm48 °FScattered clouds.14 mph94%30.15 "HgN/A
7:50 pm50 °FDrizzle. Broken clouds.15 mph88%30.18 "Hg6 mi
7:20 pm50 °FScattered clouds.13 mph88%30.18 "HgN/A
6:50 pm50 °FBroken clouds.13 mph88%30.18 "HgN/A
6:20 pm50 °FPartly sunny.10 mph82%30.21 "HgN/A
5:50 pm50 °FPartly sunny.13 mph82%30.21 "HgN/A
5:20 pm52 °FBroken clouds.12 mph77%30.21 "HgN/A
4:50 pm52 °FPartly sunny.10 mph72%30.21 "HgN/A
4:20 pm50 °FPartly sunny.13 mph71%30.24 "HgN/A
3:50 pm50 °FPartly sunny.12 mph71%30.24 "HgN/A
3:20 pm52 °FPartly sunny.12 mph67%30.27 "HgN/A
2:50 pm52 °FPassing clouds.13 mph58%30.27 "HgN/A
2:20 pm52 °FPassing clouds.12 mph58%30.27 "HgN/A
1:50 pm52 °FPassing clouds.12 mph62%30.27 "HgN/A
1:20 pm50 °FPassing clouds.10 mph54%30.30 "HgN/A
12:50 pm52 °FPassing clouds.8 mph58%30.30 "HgN/A
12:20 pm50 °FPassing clouds.9 mph58%30.30 "HgN/A
Weather by CustomWeather, © 2017

See weather overviewHow to use our weather pages